Observations

BIA Manual Entry


Date Temp Humidity Rainfall Dew Point Wind Direction Wind Speed Wind Pressure Condition Visibility
2025-06-06 11:00:49 32 58 23 140 9.5 1011 Partly Cloudy (Day) 20 KM
2025-06-06 10:24:01 31 65 24 210 5.7 1012 Partly Cloudy (Day) 20KM
2025-06-06 09:09:06 30 71 24 220 7.6 1012 Partly Cloudy (Day) 15KM
2025-06-06 08:01:23 28 76 0.0 24 180 5.7 1011 Partly Cloudy (Day) 20 KM
2025-06-06 06:57:51 26 86 0.0 24 170 3.8 1010 Partly Cloudy (Day) 20 KM
2025-06-06 06:01:16 26 92 0.0 24 020 1.9 1010 Partly Cloudy (Day) 10 km
2025-06-06 05:00:56 26 90 0.0 24 170 5.7 1010 Partly Cloudy (Night) 10 km
2025-06-06 04:00:57 26 89 0.0 24 260 5.7 1010 Partly Cloudy (Night) 10 km
2025-06-06 03:01:29 27 86 0.0 24 170 9.5 1010 Partly Cloudy (Night) 10 km
2025-06-06 02:00:34 27 87 0.00 24 160 1.9 1010 Partly Cloudy (Night) 10km
2025-06-06 00:59:54 27 87 0.00 24 090 1.9 1011 Partly Cloudy (Night) 10KM
2025-06-05 23:59:56 27 85 0.00 24 100 3.8 1011 Partly Cloudy (Night) 10KM
2025-06-05 23:02:08 28 82 0.00 24 080 1.9 1011 Partly Cloudy (Night) 10KM
2025-06-05 23:00:24 28 82 0.00 24 080 1.9 1011 Partly Cloudy (Day) 10KM
2025-06-05 21:59:26 29 76 0.00 24 270 1.9 1012 Partly Cloudy (Night) 10km
2025-06-05 20:58:41 29 73 0.00 23 240 1.9 1011 Partly Cloudy (Night) 10 km
2025-06-05 20:02:26 30 69 0.00 23 340 3.8 1010 Partly Cloudy (Night) 10 km
2025-06-05 19:02:41 30 67 0.00 23 270 5.7 1010 Partly Cloudy (Night) 10 km
2025-06-05 17:58:41 31 62 23 300 7.6 1008 Partly Cloudy (Day) 15 KM
2025-06-05 17:01:26 31 60 22 260 11.4 1008 Partly Cloudy (Day) 20 KM
2025-06-05 15:56:43 32 62 23 320 19.0 1008 Distant showers 15 KM
2025-06-05 15:01:39 32 58 23 330 1.9 1009 Distant showers 15 KM
2025-06-05 14:03:46 33 56 33 020 15.2 1009 Cloudy 20 KM
2025-06-05 13:00:59 32 59 23 340 5.7 1010 Partly Cloudy (Day) 20KM
2025-06-05 13:00:20 32 59 23 340 5.7 1010 Partly Cloudy (Day) 20KM